ECMWFFLT1_925_temp_072.txt.gz
Temp
30 31 30 29 29 29 29 30 30 29 28 29 29 29 29 29 29 28 28 27 26 25 25 24 24 24 24 24 24 24 24 24 25 25 25 25 25 25 25 26 26 26 26 26 26 26 26 25 25 25 25 24 24 24 24 24 24 24 24 24 24 24 24
28 29 29 29 29 29 29 29 30 29 28 29 29 29 29 29 29 28 28 27 26 26 25 25 24 24 24 24 24 24 24 24 25 25 25 25 25 25 25 25 26 26 26 26 26 26 26 25 25 25 25 25 25 24 24 24 24 24 24 24 24 24 24
26 27 28 28 29 29 29 29 30 29 29 29 29 29 29 29 29 28 28 27 26 26 26 25 25 25 25 24 24 24 24 24 25 25 25 25 25 25 26 25 25 26 26 26 26 26 26 26 25 25 25 25 25 25 24 24 24 24 24 24 24 25 24
25 26 26 27 28 29 30 30 30 29 29 29 29 29 29 29 28 28 27 27 27 26 26 26 25 25 25 25 25 24 24 24 25 25 25 26 26 26 26 25 25 26 26 26 26 26 26 26 25 25 25 25 25 25 24 25 25 24 24 24 24 25 25
24 25 25 26 27 28 30 31 30 29 29 29 29 29 28 28 28 28 28 28 27 27 27 26 26 26 25 25 25 25 25 25 25 25 26 26 26 26 26 26 26 26 26 26 26 26 26 26 26 25 25 25 25 25 25 25 25 25 24 24 25 25 25
22 23 24 25 26 27 28 30 31 30 29 29 30 30 29 29 29 29 28 28 27 27 26 26 26 26 26 26 26 26 25 25 25 25 25 26 26 26 26 26 26 26 26 26 26 26 25 25 26 26 26 26 26 26 25 25 25 25 25 25 25 25 26
21 22 23 24 25 26 27 28 28 29 29 29 30 30 30 30 29 29 28 28 27 27 26 26 25 25 26 26 26 26 26 25 25 25 25 26 26 26 26 26 26 26 26 26 26 26 26 26 26 26 26 26 26 26 26 26 25 26 25 25 25 25 25
20 21 21 23 24 24 25 26 26 26 26 26 27 29 29 30 29 28 28 28 28 28 27 26 26 26 26 26 25 26 26 26 26 25 26 26 26 26 26 26 26 26 26 26 26 26 26 26 26 26 26 26 26 26 26 26 25 26 26 25 25 25 25
20 20 21 21 23 24 24 24 24 24 24 24 24 26 28 29 29 28 29 29 28 28 28 27 27 26 26 25 25 26 26 26 26 26 26 26 27 27 27 26 26 26 26 26 26 26 26 26 26 26 26 26 26 26 26 26 25 26 26 26 25 25 26
20 20 20 21 21 22 23 22 22 22 22 22 23 23 25 28 28 27 28 28 28 28 28 28 27 27 26 25 26 26 26 26 26 27 27 27 27 27 27 27 27 26 26 26 27 27 26 26 26 26 26 25 26 26 25 26 26 26 26 26 26 25 26
20 20 20 20 20 20 21 21 21 20 20 21 21 22 23 25 27 26 24 25 27 27 27 27 27 27 27 26 26 27 27 27 27 27 27 27 28 28 28 28 28 27 26 26 27 27 27 26 26 26 25 25 26 26 25 26 26 26 26 26 26 26 26
21 20 20 20 19 19 19 19 19 19 19 20 20 20 21 22 25 25 23 23 25 26 27 26 26 27 27 27 27 27 27 27 27 27 27 27 28 28 28 28 28 28 27 27 27 27 27 27 26 26 25 25 26 26 26 25 26 26 26 26 27 26 26
22 21 20 20 19 19 18 18 18 18 18 19 19 19 19 20 21 23 24 23 24 24 25 26 26 27 27 27 28 28 27 28 27 27 27 27 27 28 28 28 28 28 28 27 27 27 27 27 26 26 26 25 25 26 26 25 26 26 25 26 27 27 26
22 22 21 20 19 19 18 18 18 18 18 18 18 18 18 19 19 20 22 23 23 23 24 25 25 26 26 27 27 27 27 28 28 27 27 27 27 27 28 28 28 28 28 27 27 27 28 28 27 26 26 26 26 26 26 26 26 26 25 26 26 27 27
22 22 21 20 19 19 18 18 18 18 17 17 18 18 18 18 18 18 20 21 22 23 23 23 24 25 25 26 26 27 27 27 27 27 27 27 27 26 27 27 27 27 28 27 27 27 27 28 28 27 27 26 26 26 26 26 26 26 26 26 26 26 27
22 22 21 20 20 19 19 19 18 18 17 17 17 17 17 17 17 17 18 20 20 21 22 22 23 24 25 25 26 26 26 26 26 26 26 26 26 26 26 26 27 27 27 27 27 27 27 27 27 27 27 27 27 26 27 27 27 27 26 26 26 26 27
21 21 21 20 20 19 19 19 19 18 18 17 17 17 17 17 17 17 18 18 19 19 21 21 22 23 24 25 26 26 26 26 26 26 26 26 26 25 25 25 26 26 26 26 26 26 26 26 26 27 27 27 27 27 27 27 27 27 26 27 27 27 27
20 20 20 20 20 19 19 19 19 18 18 17 17 18 17 17 17 17 17 17 17 18 19 20 21 23 23 24 25 26 26 26 26 25 25 25 25 25 25 25 25 25 25 26 26 26 26 26 26 26 27 27 27 27 27 28 28 27 27 27 28 28 27
19 20 20 19 19 19 19 19 19 18 17 17 17 18 17 17 17 17 17 17 17 17 18 18 20 22 22 22 23 24 25 25 26 25 25 25 25 25 25 25 25 25 25 25 26 25 25 25 26 26 26 26 27 27 28 28 28 27 27 27 27 28 27
19 19 19 19 19 19 19 18 18 18 17 17 17 17 17 17 17 17 17 17 17 18 17 17 19 20 21 21 22 23 23 24 25 25 25 25 25 25 25 25 25 25 25 26 26 25 25 25 26 26 25 26 26 26 27 27 27 27 26 26 27 27 27
18 19 19 19 19 19 18 18 18 18 17 17 17 17 17 17 17 17 18 18 18 18 18 17 18 19 20 20 21 21 22 23 24 24 25 25 25 25 25 25 25 25 25 26 26 26 26 25 26 26 25 26 26 26 27 27 27 27 26 26 26 26 26
18 18 18 19 19 19 18 18 18 18 17 17 17 17 17 17 17 17 18 18 19 18 18 18 18 19 19 19 19 20 20 21 22 23 24 25 25 25 25 25 25 25 25 26 26 27 26 26 26 26 26 26 26 26 27 27 27 26 26 26 26 26 25
18 18 18 19 19 18 18 18 18 18 17 18 18 18 17 16 16 17 17 18 18 18 18 19 19 19 18 19 19 19 19 19 20 22 23 24 24 24 25 25 25 25 25 25 26 27 27 27 27 26 26 26 26 26 26 27 27 26 26 26 25 25 25
19 19 18 18 18 18 18 18 17 17 17 18 18 18 17 17 17 17 17 18 18 18 19 19 19 19 18 18 19 19 19 19 19 20 21 23 24 24 24 24 24 25 25 26 26 26 27 28 27 27 27 27 27 26 26 27 27 26 26 26 25 25 25
19 18 18 18 18 18 18 17 17 17 18 18 18 18 17 17 17 17 18 18 18 18 19 20 19 19 18 18 18 19 19 19 19 18 19 20 22 23 23 22 22 22 23 24 25 25 26 27 27 28 28 27 27 27 26 27 27 26 26 26 25 25 25
18 18 18 18 18 17 17 17 17 17 18 18 18 17 17 17 17 17 17 17 18 18 19 19 19 18 18 18 18 19 19 19 19 19 19 19 20 21 21 21 21 22 22 22 23 24 24 25 27 28 28 28 28 28 27 27 27 27 26 26 25 25 25
18 18 18 18 17 16 16 17 17 17 18 18 17 17 17 17 17 17 17 17 18 18 19 18 18 18 18 18 18 19 19 19 19 19 19 19 20 20 19 19 21 22 22 23 24 24 23 24 26 27 28 28 28 28 28 28 27 27 27 26 26 25 25
17 17 17 17 17 16 16 17 17 17 17 17 17 17 17 17 17 17 16 17 17 18 18 18 18 18 18 17 18 18 19 19 19 19 19 19 20 20 19 19 20 20 21 21 22 23 23 24 24 26 27 27 28 28 28 28 28 27 27 26 26 26 25
16 16 16 16 16 16 16 16 16 16 17 17 17 17 17 17 16 16 16 16 16 17 17 17 17 17 17 17 18 18 18 19 19 19 19 19 20 20 20 20 20 20 20 21 21 22 23 23 23 24 26 26 27 28 28 28 28 27 27 27 26 26 26
16 16 16 16 16 16 16 15 16 16 16 16 16 16 16 16 16 16 16 16 16 16 16 16 16 17 17 17 18 18 18 18 19 19 19 19 20 20 21 21 20 20 20 21 21 22 22 23 23 24 25 26 26 27 27 28 28 27 27 26 26 26 26
15 15 15 15 15 15 15 15 15 15 15 16 16 16 16 15 15 15 15 15 15 15 15 15 16 16 17 17 17 18 18 18 19 19 19 20 20 20 21 21 21 20 20 21 21 22 23 23 24 24 25 25 26 26 27 28 28 28 27 27 26 26 26
15 15 15 15 15 14 14 14 14 15 15 15 15 15 15 15 15 15 15 15 15 15 15 15 15 15 16 16 17 17 18 18 18 19 19 20 20 20 20 21 21 21 21 21 22 22 23 24 24 24 25 25 25 26 26 26 26 27 27 27 26 26 26
15 14 14 14 14 14 13 13 14 14 14 14 14 15 15 15 15 15 15 15 14 14 15 15 15 15 16 16 17 17 18 18 19 19 19 20 20 20 21 21 21 21 21 21 22 23 23 23 24 24 24 25 25 25 26 25 25 25 26 26 26 26 26
14 14 14 13 13 13 13 13 13 13 14 14 14 14 14 14 14 14 14 14 14 14 14 15 15 15 16 16 17 18 18 19 19 19 19 20 21 21 21 22 22 22 22 22 22 23 23 24 24 23 23 23 23 23 24 24 25 25 26 26 26 26 26
14 14 13 13 13 13 13 13 13 13 13 13 13 13 13 13 13 14 14 14 14 14 14 15 15 15 16 16 17 18 18 19 19 20 20 20 20 20 21 21 21 21 22 22 22 22 22 22 22 22 22 22 22 22 22 23 25 25 25 25 24 24 25
14 13 13 13 13 13 13 13 13 13 13 13 13 13 13 13 13 13 14 14 15 14 14 15 15 15 16 16 17 18 18 18 19 19 20 19 19 20 20 20 20 20 20 20 20 20 21 21 21 21 21 21 21 21 21 23 24 24 24 24 23 22 23
13 13 13 13 13 13 13 13 13 12 13 13 13 13 13 13 13 14 14 14 15 14 14 15 15 15 16 16 17 17 17 17 18 18 18 19 19 19 19 19 20 20 19 19 19 19 20 21 21 21 21 21 21 21 21 21 22 23 23 24 23 23 23
13 13 13 13 13 13 13 12 12 12 12 12 12 13 13 13 13 14 14 14 14 14 14 14 14 15 16 16 17 17 16 17 17 17 18 18 18 18 18 18 19 20 20 20 20 20 20 20 21 21 21 21 21 21 21 21 22 22 23 23 24 23 23

ECMWFFLT1_925_temp_075.txt.gz
Temp
30 29 29 29 29 29 29 29 29 29 29 28 29 30 30 29 29 27 26 27 26 26 26 26 26 26 26 26 26 26 26 26 26 26 26 26 26 27 27 27 27 27 27 27 27 27 27 26 26 26 26 25 25 25 25 25 24 25 25 24 25 25 25
31 30 29 29 29 29 28 29 29 28 28 28 28 29 30 30 29 27 26 26 26 26 26 26 26 26 26 26 26 26 26 26 26 26 26 26 26 26 27 27 27 27 27 27 27 27 27 27 26 26 26 26 26 26 25 25 25 25 25 25 25 25 25
30 30 29 29 29 28 28 27 27 26 27 27 27 28 29 29 28 27 26 26 26 26 26 26 26 26 26 26 26 26 26 26 26 26 27 27 27 27 27 27 27 27 27 27 27 27 27 27 26 26 26 26 26 26 26 26 25 25 25 25 25 25 25
28 29 30 30 29 29 28 26 24 24 25 27 27 27 28 28 28 27 27 27 27 26 26 26 25 26 26 26 26 26 26 26 27 27 27 27 27 27 27 27 27 27 27 27 27 27 27 27 27 26 26 26 26 26 26 26 26 25 25 25 25 25 25
27 28 29 30 30 29 28 28 27 25 25 26 26 25 26 27 27 27 27 26 26 25 24 25 25 26 26 26 27 27 26 26 27 27 27 28 28 27 27 27 27 27 28 28 27 27 27 27 27 27 26 26 26 26 26 26 26 26 26 25 25 26 26
25 26 28 29 29 28 29 29 29 27 26 26 25 25 25 25 25 26 26 26 25 23 23 23 25 26 26 26 27 27 27 27 27 27 27 28 28 28 28 28 28 28 28 28 28 28 27 27 27 27 27 27 27 27 27 26 26 26 26 26 26 26 27
24 25 26 27 28 28 28 29 29 28 26 25 25 24 24 25 25 24 24 24 24 24 23 24 25 25 26 27 27 28 27 27 27 27 27 28 28 28 28 28 28 28 28 28 28 28 27 27 27 27 27 27 27 27 27 27 27 27 27 26 26 26 26
23 23 24 26 26 27 27 27 28 27 26 26 25 24 24 24 24 24 23 23 24 25 25 25 26 26 26 27 27 28 27 27 27 27 27 28 28 28 28 28 28 28 28 28 28 28 28 27 27 27 27 27 27 28 28 27 27 27 27 27 26 26 27
23 23 23 24 25 26 26 26 26 26 25 25 24 23 23 23 23 23 23 23 25 26 26 27 27 26 27 27 27 27 27 27 27 27 28 28 28 28 28 28 28 28 28 28 28 28 28 28 28 27 27 27 27 27 28 27 27 27 27 27 27 27 27
23 22 22 22 23 24 25 24 24 24 24 24 23 22 21 22 23 23 23 24 24 24 25 27 27 27 27 26 27 27 27 26 27 28 28 28 29 29 29 29 29 28 28 28 29 29 28 28 28 28 27 27 27 27 27 27 27 27 27 27 27 27 27
22 22 22 22 22 22 23 23 23 23 23 23 23 22 21 22 23 23 22 23 23 23 23 25 26 27 27 27 27 27 27 27 27 28 28 28 29 30 29 30 30 29 28 28 29 29 29 28 28 28 27 27 27 27 27 27 27 27 27 27 27 27 27
23 23 22 22 22 21 21 21 22 22 23 23 23 23 22 22 22 23 23 23 22 22 23 25 26 27 26 27 28 27 27 28 28 28 28 27 28 30 30 30 30 30 29 29 29 29 29 29 28 28 27 27 27 27 27 27 27 27 27 27 28 28 27
23 23 22 22 22 21 20 20 21 22 22 23 23 22 23 23 22 23 23 23 23 23 24 25 26 26 26 26 27 27 28 28 28 28 28 28 28 29 30 30 30 30 30 29 29 29 29 29 29 28 27 27 27 27 27 27 27 27 27 27 28 28 28
24 24 23 23 22 22 21 20 20 21 21 22 22 22 22 22 22 22 23 23 23 24 24 24 24 25 26 27 27 26 27 28 28 28 28 27 27 29 30 30 30 30 30 30 29 29 30 30 29 29 28 27 27 27 27 27 27 27 27 27 27 28 28
25 24 24 23 22 22 21 21 21 20 20 20 21 21 21 21 21 22 22 22 22 22 23 23 23 24 25 26 27 26 26 26 26 27 27 27 28 28 29 29 30 30 30 30 30 30 30 30 30 29 29 28 28 27 28 28 27 27 27 27 27 27 28
25 24 24 23 23 22 22 22 21 21 20 20 20 21 21 20 20 21 21 21 22 21 21 22 23 23 24 25 26 26 26 26 26 25 26 26 28 28 28 28 29 29 29 30 30 30 29 30 30 30 29 29 28 28 28 28 28 28 27 27 27 27 28
24 24 23 23 23 22 22 22 22 21 21 21 20 20 20 20 20 21 21 21 21 21 21 21 23 24 24 24 24 25 25 26 26 26 25 26 27 27 27 27 28 28 28 29 29 29 29 29 29 30 30 30 29 29 29 29 29 29 28 27 27 27 28
23 23 23 22 22 22 22 22 22 21 21 21 21 20 20 20 20 20 20 20 20 20 20 20 21 23 23 23 24 23 24 24 24 25 25 25 25 25 25 24 25 27 28 28 28 28 28 28 28 29 29 30 30 30 30 30 30 29 29 28 27 27 27
23 23 23 22 22 21 21 22 22 21 21 21 21 20 20 20 20 20 20 20 20 20 19 19 20 21 22 22 22 22 22 22 22 23 23 24 24 24 24 22 22 23 25 27 28 28 28 28 28 28 28 29 29 30 30 30 30 30 29 29 28 28 28
22 22 22 22 22 22 21 21 21 21 20 21 21 20 20 20 20 21 21 20 21 20 20 19 20 20 21 21 21 22 22 22 21 22 22 23 23 24 24 23 22 22 22 23 25 27 28 27 27 28 27 28 28 29 29 30 30 30 29 29 28 28 28
21 22 22 22 22 22 21 21 21 20 20 20 20 20 20 20 20 21 21 21 21 21 20 20 20 20 20 20 20 21 21 21 21 21 21 22 22 22 23 23 23 22 22 22 22 24 26 27 27 27 27 27 28 28 29 29 29 29 29 29 28 28 28
21 21 21 22 22 21 21 21 21 20 20 20 21 21 20 20 20 20 21 21 21 21 20 21 21 20 20 19 20 20 20 21 21 21 21 21 21 21 22 22 22 22 22 22 22 23 23 24 24 25 27 28 28 28 28 29 29 29 29 28 28 28 27
21 21 21 22 21 21 21 21 20 20 20 21 21 21 20 20 20 20 20 21 21 21 20 21 22 21 20 19 19 19 20 20 20 21 21 20 21 21 21 21 22 22 23 22 23 23 23 23 24 24 25 27 28 28 28 28 29 29 28 28 28 27 27
22 22 21 21 21 22 21 20 20 20 20 21 21 21 20 20 20 20 20 21 21 21 21 21 22 21 20 19 19 20 20 20 20 21 21 20 20 21 21 21 21 22 22 22 22 23 24 24 25 25 25 26 27 28 28 28 28 28 28 28 28 27 27
22 22 21 21 21 21 20 20 19 20 21 21 21 20 20 20 20 20 20 20 20 21 22 22 21 21 20 20 19 19 20 20 20 21 20 20 20 20 20 21 21 21 21 22 22 23 23 23 24 25 25 26 26 27 28 28 28 28 28 28 27 27 27
21 21 21 21 21 20 19 20 20 20 21 21 20 20 20 20 20 20 20 20 20 21 21 21 21 20 20 20 20 20 19 20 20 20 20 20 20 21 21 21 21 21 21 21 21 22 22 23 24 24 25 26 26 27 28 28 29 28 28 28 27 27 27
21 21 21 20 20 19 19 20 20 20 21 20 20 20 20 20 20 20 19 19 19 20 21 20 20 20 19 19 19 20 20 20 20 20 20 20 20 20 21 21 20 20 20 20 21 21 22 23 24 25 26 26 26 27 28 28 29 29 28 28 27 27 27
20 20 20 20 19 19 19 20 20 20 20 20 20 20 20 20 20 19 19 19 19 19 20 20 19 19 19 19 19 20 20 20 20 20 20 20 20 20 21 21 21 20 20 21 21 21 22 22 23 24 25 26 27 27 27 28 28 29 29 28 28 27 27
19 19 19 19 19 19 19 19 19 19 19 19 19 19 19 19 19 19 18 18 18 18 18 18 18 18 18 19 19 19 20 20 20 20 20 21 21 21 21 21 21 21 21 21 21 21 22 22 22 23 24 25 26 27 27 27 27 28 28 28 28 28 27
19 18 18 19 19 18 18 18 18 18 18 18 18 18 18 18 18 18 18 18 18 18 18 18 18 18 18 18 19 19 20 20 20 20 21 21 21 21 21 21 21 22 22 21 21 21 21 22 22 23 24 25 26 27 27 27 27 27 27 28 28 28 28
18 18 18 18 18 17 17 17 17 17 17 18 18 18 18 18 18 18 18 18 17 17 17 17 17 17 17 18 18 19 19 20 20 20 21 21 21 22 22 22 22 22 22 22 22 22 22 22 23 23 24 25 25 25 25 24 24 24 25 26 26 27 27
18 17 17 17 17 16 16 16 16 17 17 17 17 17 17 17 17 17 17 17 17 17 17 17 17 17 17 17 18 18 18 19 20 20 21 21 21 21 22 22 22 22 22 22 22 22 22 23 23 23 24 24 23 22 22 22 22 23 25 25 25 25 26
17 17 17 16 16 16 15 16 16 16 16 16 16 16 17 17 17 17 16 16 16 17 17 17 17 17 17 17 17 18 18 19 19 20 21 21 22 22 22 23 23 23 23 23 23 23 23 24 24 24 24 23 22 22 22 23 23 23 23 24 24 24 25
17 17 16 16 16 15 15 15 15 15 15 16 16 15 16 16 16 16 16 16 16 16 16 16 16 17 17 17 18 18 19 20 20 20 21 22 22 23 23 24 24 24 24 24 24 24 24 24 23 23 23 22 22 22 22 22 22 22 22 23 23 23 23
16 16 16 16 16 15 15 15 15 15 15 15 15 15 15 15 15 15 15 15 16 16 16 16 17 17 17 17 18 18 19 20 20 21 21 22 22 23 23 23 23 23 23 23 23 23 23 22 22 21 21 22 21 22 21 21 22 22 22 23 23 22 22
16 16 16 16 15 15 15 15 15 15 15 15 15 15 15 15 15 15 15 15 16 16 16 16 16 17 17 17 18 18 19 20 20 21 21 21 22 22 22 22 22 22 21 21 21 21 21 21 21 21 21 21 21 21 21 21 22 22 22 22 22 22 22
16 16 16 16 15 15 15 15 15 15 15 15 15 14 15 15 15 15 15 15 16 16 16 16 16 16 17 17 18 18 18 19 19 20 20 20 20 20 21 21 21 21 21 21 20 20 20 20 21 21 21 21 20 20 20 20 21 21 22 22 22 22 22
16 16 15 15 15 15 15 15 15 15 14 14 14 14 15 15 15 15 15 15 15 16 16 16 16 16 17 17 17 17 18 18 18 19 19 19 19 19 20 20 21 21 21 21 21 21 21 21 21 21 21 21 20 20 20 20 20 20 21 21 21 22 22

ECMWFFLT1_925_temp_078.txt.gz
Temp
28 28 29 28 28 27 26 27 29 29 28 29 29 29 29 29 28 28 27 27 26 26 26 26 26 26 26 26 26 26 26 26 26 26 26 26 26 27 26 26 27 27 26 26 26 26 26 26 26 26 25 25 25 25 25 25 25 25 25 25 25 25 25
27 28 28 27 27 26 26 27 28 27 27 27 28 28 28 28 27 27 27 26 26 26 26 26 26 26 26 26 26 26 26 26 26 26 26 26 26 27 27 27 27 27 27 27 27 27 26 26 26 26 26 26 26 25 25 25 25 25 25 25 25 25 25
26 26 26 26 26 25 26 26 27 26 26 26 26 26 26 25 24 25 26 26 26 25 25 26 26 26 26 26 26 26 26 26 26 26 26 26 26 26 27 27 27 27 27 27 27 27 27 26 26 26 26 26 26 26 25 25 25 25 25 25 25 25 25
26 25 24 25 24 24 25 26 26 27 27 27 26 25 25 24 23 24 25 24 24 23 24 25 26 26 26 26 26 26 26 26 26 26 27 27 27 27 27 27 27 27 27 27 27 27 27 27 26 26 26 26 26 26 26 26 25 25 25 25 25 25 25
27 26 24 24 23 24 25 26 26 27 26 26 25 24 24 24 24 25 25 24 24 24 24 25 26 26 26 26 26 26 26 26 26 26 27 27 27 27 27 27 27 27 27 27 27 27 27 27 27 27 26 26 26 26 26 26 26 26 25 25 25 25 25
28 27 25 25 24 24 25 27 27 26 25 25 24 23 22 23 24 24 24 25 25 25 24 25 25 26 25 25 26 27 27 26 27 27 27 27 27 27 27 27 27 27 28 27 27 28 27 27 27 27 27 26 26 27 26 26 26 26 26 25 25 25 26
27 28 26 26 26 25 25 27 26 25 25 25 25 23 21 22 23 24 24 25 25 24 25 25 25 25 25 25 26 26 26 26 26 26 27 27 27 28 27 27 28 28 28 28 28 28 27 27 27 27 27 27 27 27 27 27 26 26 26 26 26 26 26
26 27 28 28 27 26 26 26 24 23 24 25 25 24 22 22 23 24 24 25 24 24 25 24 25 25 25 25 25 26 26 26 25 26 27 28 28 28 28 28 28 28 28 28 28 28 28 27 27 27 27 27 27 27 27 27 27 27 27 26 26 26 26
25 26 26 27 26 26 26 26 25 24 24 24 24 24 23 23 23 23 23 24 24 24 24 24 24 25 25 25 25 26 26 26 26 25 26 28 28 28 28 28 28 28 28 28 28 28 28 28 27 27 27 27 27 27 28 27 27 27 27 27 26 26 26
24 24 24 25 25 25 25 25 25 25 24 24 24 23 23 23 23 23 23 23 24 24 24 24 24 25 25 25 25 25 25 26 26 26 26 28 28 29 29 29 28 28 28 28 29 28 28 28 28 28 27 27 27 27 27 28 27 27 27 27 27 27 26
23 23 23 23 23 23 24 24 24 24 23 23 23 23 23 23 22 22 22 23 23 23 23 23 24 24 25 25 25 25 25 25 25 25 26 27 28 29 29 29 29 29 28 28 29 29 28 28 28 28 28 27 27 27 27 27 27 27 27 27 27 27 27
22 22 22 22 22 22 22 23 23 23 23 23 23 23 23 22 22 21 21 22 23 23 23 22 23 23 23 24 24 24 24 25 25 24 26 27 28 28 29 30 30 29 29 28 29 29 29 28 28 28 28 27 27 27 27 27 27 27 27 27 27 27 27
23 23 23 22 22 21 21 21 22 23 23 23 23 23 23 23 22 21 21 21 22 23 23 23 23 23 23 23 23 23 23 25 24 24 25 27 28 28 28 29 30 30 30 29 29 29 29 29 28 28 28 28 27 27 27 27 27 27 27 27 27 27 27
24 24 23 22 22 21 21 21 21 22 23 23 22 22 22 22 22 21 21 21 21 22 22 23 23 23 23 23 23 22 22 23 23 23 24 26 27 28 28 29 29 30 30 30 29 29 29 30 29 28 28 28 28 27 27 27 27 27 27 27 27 27 28
25 24 24 23 22 22 22 21 22 22 22 22 22 21 21 21 22 22 22 22 22 21 22 22 23 23 23 23 22 22 22 22 22 22 23 23 24 25 26 27 28 28 29 29 30 29 29 29 30 29 28 28 28 27 27 27 27 27 27 27 27 27 27
25 24 24 23 23 22 22 22 22 22 22 22 22 22 21 21 21 22 21 22 22 22 22 22 22 23 23 23 22 22 21 21 21 22 22 22 22 22 23 25 26 27 28 28 29 30 30 29 30 30 29 29 28 28 28 27 28 28 27 27 27 27 27
24 24 24 23 23 23 22 22 22 22 22 22 22 22 21 21 22 22 21 21 21 21 21 22 23 23 22 22 22 21 21 21 22 22 22 22 22 23 23 24 25 26 26 26 26 28 29 29 30 30 30 30 29 28 28 28 28 28 28 27 27 27 27
24 24 23 23 23 23 23 22 22 22 22 22 22 22 22 22 22 22 21 21 21 21 21 21 22 22 22 21 21 21 21 21 22 22 21 21 21 22 23 23 24 24 25 25 25 26 27 28 28 29 29 30 30 30 29 29 29 29 29 28 28 27 27
24 23 23 23 22 22 22 22 22 22 22 22 22 22 22 22 22 22 22 21 21 20 20 20 21 21 21 21 21 21 21 21 21 21 21 22 22 22 22 23 24 24 24 25 26 26 26 27 27 27 28 29 29 30 30 30 29 29 29 29 29 28 28
24 23 23 23 22 22 22 22 22 21 22 22 22 22 22 22 22 22 22 22 21 21 20 20 20 20 20 20 20 20 20 20 20 20 21 22 21 21 21 21 22 23 23 24 25 25 26 26 26 27 27 27 28 28 29 29 30 30 30 30 29 29 28
23 23 23 22 22 22 22 22 21 21 21 22 22 22 21 22 22 23 23 22 22 21 21 21 21 20 20 20 19 20 20 20 20 20 21 21 21 21 21 22 22 22 23 24 24 24 25 25 25 25 26 26 27 27 27 28 29 29 30 30 30 29 29
22 23 23 23 22 22 22 22 22 21 22 22 22 21 21 21 22 22 23 23 22 21 22 22 21 20 19 19 19 19 19 19 20 20 20 20 21 21 21 22 22 22 22 22 22 23 23 23 24 24 25 26 26 26 27 27 28 29 29 29 29 29 29
22 22 23 23 23 22 21 21 21 22 22 23 22 21 21 21 21 22 22 22 22 22 22 22 21 21 20 19 19 19 19 19 20 20 20 20 20 20 21 21 21 21 22 22 22 22 22 23 23 23 24 24 25 25 26 26 27 28 28 29 29 29 29
23 23 23 23 23 22 21 21 21 22 22 23 22 21 21 21 21 21 21 21 22 22 22 22 21 21 21 20 20 20 19 19 20 20 20 20 20 20 20 20 20 21 21 21 21 21 22 22 22 22 23 23 24 25 25 26 27 27 28 28 28 28 29
23 23 23 23 22 21 21 21 21 22 22 22 21 21 22 22 21 21 21 21 21 22 22 22 21 20 20 20 20 20 20 20 20 20 20 20 20 20 20 20 20 20 20 21 21 21 22 22 22 22 22 23 24 24 25 25 26 27 27 28 28 28 28
22 22 22 22 21 20 21 21 21 21 22 21 21 21 22 21 21 21 20 20 20 21 21 21 20 20 20 20 20 20 21 20 20 20 20 20 20 20 20 20 20 20 20 20 20 21 21 22 22 22 23 23 24 25 25 26 26 26 26 27 27 27 28
22 22 22 21 20 20 21 21 21 21 21 21 21 21 21 21 20 20 19 20 20 20 20 20 20 20 19 19 20 20 20 21 20 20 20 20 20 20 21 21 21 20 21 21 21 21 21 21 22 22 23 23 24 25 25 25 24 23 23 24 24 25 25
21 21 21 21 20 20 20 20 20 20 20 20 20 20 20 20 19 19 19 19 19 19 19 19 19 19 19 19 19 19 20 20 20 20 20 20 20 20 21 21 21 21 21 21 21 21 21 21 21 22 22 23 23 24 24 23 22 22 23 24 25 25 24
20 20 20 20 20 20 19 19 19 19 19 19 19 19 19 19 19 18 18 19 19 18 18 18 18 18 18 18 18 19 19 20 20 20 21 21 21 21 21 21 21 21 21 21 21 21 21 21 21 22 22 22 23 24 24 24 24 25 26 26 26 26 26
20 19 19 19 19 19 18 18 18 18 18 19 18 18 18 18 18 18 18 18 18 18 18 18 18 18 18 18 18 18 19 19 19 20 20 21 21 21 22 22 22 22 22 22 21 21 21 21 21 22 22 22 23 24 24 24 25 25 25 25 25 25 25
19 19 18 19 18 18 17 17 17 17 18 18 17 17 17 17 17 17 17 17 17 17 17 17 17 17 18 18 18 18 18 18 19 19 20 20 21 21 22 22 22 22 22 22 22 22 22 22 22 22 22 23 23 24 24 24 25 25 25 25 24 24 24
19 18 18 18 17 17 17 17 17 17 17 17 17 17 17 17 17 17 17 16 16 17 17 17 17 17 17 17 17 17 17 18 19 19 20 20 20 21 21 22 22 22 22 22 22 22 22 22 23 23 23 23 23 23 23 23 23 24 24 24 24 24 24
18 18 17 17 17 16 16 16 16 16 16 16 16 16 16 16 16 16 16 16 16 16 16 16 17 17 17 17 17 18 18 18 19 19 20 20 21 21 22 22 23 23 23 23 23 23 23 23 23 23 23 22 22 22 22 22 22 22 23 23 24 23 23
18 17 17 17 16 16 16 16 16 16 16 16 16 16 16 15 15 15 15 15 16 16 16 16 16 17 17 17 18 18 18 19 19 20 20 21 21 22 22 22 23 24 24 24 24 24 24 23 23 22 22 22 22 22 22 22 22 22 22 22 22 22 22
17 17 17 17 17 16 16 16 16 16 15 15 15 15 15 15 15 15 15 16 16 16 16 16 16 16 16 17 17 18 18 19 19 20 20 21 21 22 22 22 22 23 23 23 23 23 23 22 22 22 22 23 22 22 22 22 22 22 22 21 21 21 21
17 17 17 17 17 16 16 16 15 15 15 15 15 15 15 15 15 15 16 16 16 16 16 16 16 16 16 17 17 17 18 18 18 19 19 19 20 20 21 21 21 22 22 22 22 22 22 22 22 22 22 22 22 22 22 21 21 22 22 22 22 21 21
17 17 17 17 16 16 16 16 15 15 15 15 15 15 15 15 15 15 16 16 16 16 16 16 16 16 16 16 16 17 17 17 17 18 18 18 19 19 19 20 20 20 20 21 21 21 21 21 22 22 21 21 21 22 22 21 21 21 21 21 21 21 21
17 17 17 16 16 16 16 16 15 15 15 15 15 15 15 15 15 15 15 15 15 15 15 15 15 15 16 16 16 16 16 16 17 17 17 18 18 18 19 19 19 19 20 20 20 21 21 21 21 21 21 21 21 21 21 21 21 21 21 21 21 21 21

ECMWFFLT1_925_temp_084.txt.gz
Temp
26 26 26 26 26 27 26 26 28 28 28 27 27 27 27 26 26 26 26 26 26 25 25 25 25 25 25 25 25 26 26 26 26 26 26 26 26 26 26 26 26 26 26 25 25 25 25 25 25 24 24 24 24 24 25 25 25 24 25 25 25 25 25
25 25 26 25 25 26 24 23 25 26 26 26 27 27 26 26 26 25 25 25 26 26 25 25 25 25 25 25 25 25 25 26 26 25 26 26 26 26 26 26 26 26 26 25 25 25 25 25 25 25 25 25 25 25 24 25 25 25 25 25 25 25 25
25 25 25 23 23 24 22 20 22 23 24 25 26 26 26 26 26 26 25 25 25 25 25 25 25 25 25 25 25 25 25 25 25 25 26 26 26 26 26 26 26 26 25 25 25 25 25 25 25 25 25 25 25 25 24 25 25 25 24 25 25 25 25
24 23 23 22 22 23 21 21 22 23 24 25 25 25 26 27 26 26 25 25 25 25 25 25 25 25 25 25 25 25 25 25 25 25 25 26 26 26 26 26 26 26 25 25 25 25 25 25 25 25 25 25 25 25 25 25 25 24 24 24 24 25 25
22 21 21 21 21 22 22 22 22 24 25 25 25 25 26 27 27 26 25 25 25 25 25 25 25 25 25 25 25 25 25 25 25 25 25 25 26 26 26 26 26 26 25 25 25 26 26 25 25 25 25 25 25 25 25 25 25 25 24 24 24 24 25
21 21 21 21 21 22 22 22 22 24 24 25 25 25 25 25 26 26 25 25 25 25 25 25 25 25 25 25 25 25 25 25 25 25 25 25 25 25 25 25 25 26 25 25 26 26 26 26 26 26 26 25 25 25 25 25 25 25 25 24 24 24 24
21 21 21 21 21 22 22 22 22 23 23 24 24 24 23 24 25 25 25 25 25 25 25 25 25 24 24 24 24 24 24 24 25 25 25 25 25 25 25 25 25 26 26 26 26 26 26 26 26 26 26 26 25 25 25 25 25 25 25 25 25 25 25
22 22 22 22 22 21 21 21 22 22 22 22 22 22 22 23 23 24 23 23 23 23 23 23 23 22 22 22 23 23 23 23 24 24 25 25 25 25 25 25 25 26 26 26 26 26 26 26 26 26 26 26 25 25 25 25 25 25 25 25 25 25 25
21 21 22 22 22 22 21 21 21 21 21 21 21 22 22 22 22 22 22 22 21 22 22 21 20 21 22 23 24 24 23 23 24 24 24 24 25 25 25 25 26 26 26 26 26 26 26 26 26 26 26 26 26 26 25 25 25 25 25 25 25 25 25
21 21 21 21 22 22 22 21 20 20 21 21 21 21 21 22 22 21 21 21 21 22 22 21 21 23 23 24 25 24 23 23 23 24 24 24 24 25 25 25 25 25 26 26 26 26 26 26 27 26 26 26 26 26 26 26 25 25 25 25 25 25 25
20 20 21 21 21 21 21 20 20 20 20 20 21 21 21 21 21 21 21 21 21 22 21 20 21 22 22 23 23 23 23 23 23 24 24 24 24 24 25 25 25 25 26 26 26 26 26 26 27 27 26 26 26 26 26 26 26 26 26 26 26 26 26
20 20 20 20 20 20 20 20 19 19 19 20 20 20 19 19 20 20 20 20 22 21 20 20 22 22 21 22 22 22 23 23 23 24 24 24 24 24 24 25 25 25 26 26 26 26 26 27 27 27 27 27 26 26 26 26 26 26 26 26 26 26 26
20 20 20 20 20 19 19 19 19 19 19 19 19 20 19 19 19 19 19 20 22 21 20 21 22 22 21 22 22 22 22 23 23 23 23 23 24 24 24 25 25 25 26 26 26 26 26 26 27 27 27 27 27 27 27 26 26 26 26 26 26 26 26
20 20 20 20 20 19 19 18 18 18 18 18 19 19 19 19 19 19 19 20 21 21 20 21 22 22 22 22 22 23 23 23 23 23 22 23 23 24 24 24 24 25 25 26 26 26 26 26 26 27 27 27 27 27 27 27 26 26 26 26 26 26 26
20 20 20 20 20 19 19 18 18 18 18 18 19 19 19 19 19 19 19 20 20 21 20 21 21 22 22 22 22 22 23 23 22 22 23 23 23 24 23 23 24 24 25 25 26 26 26 26 26 27 27 27 27 27 27 27 27 27 27 26 26 26 26
20 20 20 20 20 20 19 18 18 18 17 18 18 19 19 19 20 20 20 20 20 20 20 20 21 21 21 21 21 21 21 21 21 22 22 22 23 23 23 23 23 24 24 25 25 25 26 26 26 27 27 27 27 27 27 27 27 27 27 27 27 27 26
20 20 20 20 20 20 20 19 19 19 18 18 18 18 19 19 20 20 20 20 20 20 20 20 20 20 20 20 20 20 20 21 21 21 21 21 22 22 22 22 23 23 24 24 25 25 25 25 26 26 27 27 27 27 27 27 27 27 27 27 27 27 27
20 20 20 20 20 20 20 20 20 20 19 19 19 19 19 19 19 19 19 19 19 19 20 20 20 20 20 20 20 20 21 21 21 21 21 21 21 21 21 21 22 23 23 24 24 25 25 25 25 26 26 27 26 26 26 26 27 27 27 27 27 27 27
20 20 20 20 20 20 20 20 21 20 20 20 20 20 20 20 19 19 19 19 19 19 20 20 20 20 19 19 20 21 21 20 21 21 21 21 21 21 21 21 21 22 22 23 24 24 25 25 25 25 26 26 26 26 26 26 26 26 26 26 26 26 26
20 20 20 20 20 20 20 20 20 20 21 21 20 19 19 20 20 19 20 20 20 20 20 20 20 19 19 19 20 20 20 20 20 20 20 20 20 21 21 21 21 21 21 22 22 23 24 24 24 24 25 25 26 26 26 26 26 26 26 26 26 26 26
20 20 20 20 20 20 20 20 20 20 21 21 21 20 19 20 20 19 20 20 20 20 20 20 19 19 19 19 19 19 20 20 20 20 19 19 20 20 20 20 20 20 20 21 21 22 22 23 23 24 24 24 25 25 26 26 26 26 26 26 26 26 26
20 20 20 20 20 19 20 20 20 20 21 21 21 21 20 20 20 19 19 20 20 20 20 19 19 19 20 19 19 19 20 20 20 20 20 20 20 20 20 20 20 20 20 21 21 21 21 22 22 22 23 24 24 24 25 25 26 26 26 26 26 26 26
19 20 20 20 20 20 20 20 20 20 20 21 21 21 21 21 20 20 20 20 20 20 20 20 20 20 20 20 19 19 19 19 20 20 20 20 20 20 20 20 20 20 20 21 21 21 21 21 21 21 22 23 23 24 24 25 25 25 25 25 25 25 26
19 20 20 20 20 20 20 20 19 20 20 20 20 20 21 21 20 20 20 19 20 19 19 19 19 19 19 20 19 19 19 19 19 19 19 20 20 20 20 20 20 20 20 20 21 21 21 21 21 21 21 22 23 23 24 24 24 24 24 24 24 24 25
19 19 20 19 19 19 19 19 19 19 19 19 19 19 20 20 20 19 19 19 19 19 18 18 18 18 19 19 19 19 19 19 19 19 19 19 20 20 20 20 20 20 20 20 20 20 20 20 20 20 20 22 23 23 23 23 23 23 23 23 23 24 24
18 18 18 18 18 19 19 18 18 18 18 18 18 18 19 19 19 19 18 18 18 18 17 18 18 18 18 18 18 18 18 19 19 19 19 19 19 19 20 20 20 20 20 21 21 21 20 20 20 19 20 21 23 23 23 23 23 23 23 23 23 23 23
18 18 18 18 18 18 18 18 17 17 17 17 18 18 18 18 18 17 17 17 17 17 17 17 17 17 17 17 17 17 18 18 18 18 19 19 19 19 19 20 20 20 20 21 21 21 21 21 20 20 20 22 22 22 22 22 23 23 23 23 23 23 23
17 17 17 18 18 18 17 17 17 17 17 17 17 17 17 17 17 16 16 16 16 16 16 17 17 17 17 17 17 17 17 17 18 18 18 18 18 19 19 19 20 20 20 20 20 21 21 21 21 20 21 21 22 22 22 22 22 22 22 22 23 23 22
16 16 17 17 17 17 17 16 16 16 16 16 16 16 16 16 16 16 16 16 16 16 16 16 16 16 16 16 16 17 17 17 17 17 18 18 18 18 19 19 20 20 20 20 20 20 21 21 21 21 21 21 22 22 22 22 22 22 22 22 22 22 22
16 16 16 16 16 16 16 16 16 15 15 15 15 15 15 15 15 15 15 15 15 15 16 16 16 16 16 16 16 16 16 16 17 17 17 18 18 18 18 19 19 19 20 20 20 20 20 20 20 20 20 20 21 21 21 21 21 22 22 22 22 22 23
15 16 16 16 16 16 16 15 15 15 15 15 15 15 15 15 15 15 15 15 15 15 15 15 15 16 16 16 16 16 16 16 17 17 17 17 17 17 17 17 18 18 18 19 19 19 19 19 19 19 19 20 20 21 21 21 21 22 22 22 22 22 22
15 16 16 16 16 16 15 15 15 15 15 15 15 15 15 15 15 15 15 15 15 15 15 15 15 15 15 15 15 15 16 16 16 16 16 16 16 16 16 16 17 17 17 17 18 18 18 18 18 18 19 19 19 20 21 21 22 22 22 22 22 22 21
15 16 16 16 16 15 15 15 15 15 15 14 14 15 14 14 15 15 14 15 15 15 15 15 15 15 15 15 15 15 15 15 15 15 15 16 16 16 16 16 16 16 16 16 17 17 17 17 17 17 18 18 19 19 20 21 21 22 22 22 22 21 21
15 16 16 16 16 15 15 15 15 15 15 14 14 14 14 14 14 14 14 14 14 14 14 14 14 14 14 14 14 15 15 15 15 15 15 15 15 15 15 15 15 15 15 16 16 16 16 16 17 17 17 17 18 18 18 19 20 21 21 21 21 21 21
16 16 16 15 15 15 15 15 15 15 14 14 14 14 14 14 14 14 14 14 14 14 14 14 14 14 14 14 14 14 14 14 14 14 14 14 14 14 15 15 15 15 15 15 16 16 16 16 16 17 17 17 17 17 17 18 19 19 20 20 20 20 21
16 16 16 15 15 15 15 15 15 14 14 14 14 14 14 13 13 13 13 13 13 13 13 13 13 13 13 13 13 13 13 13 14 14 14 14 14 14 14 14 14 14 15 15 15 16 16 16 16 16 16 17 17 17 17 17 18 19 19 20 20 20 20
16 16 15 16 15 15 15 14 14 14 13 13 13 13 13 13 13 13 13 13 13 13 13 13 12 12 12 12 13 13 13 13 13 13 13 13 13 13 13 14 14 14 14 14 14 15 15 15 15 16 16 17 17 18 18 18 18 19 19 19 20 20 20
16 16 15 15 15 14 14 14 13 13 13 13 13 13 13 13 13 13 13 13 13 12 12 12 12 12 12 12 12 12 12 12 13 13 13 13 13 13 13 13 13 13 13 14 14 14 14 15 15 15 16 16 17 17 18 18 18 18 19 19 19 19 20